Newton, KS

2:21 AM CDT on September 19, 2019 (GMT -0500)
Newton City County

Weather History for KEWK - July, 2019

Change the Weather History Date:

Wednesday, July 24, 2019

  Actual Average Record
Temperature  
Mean Temperature 71 °F -  
Max Temperature 82 °F 88 °F 107 °F (2011)
Min Temperature 60 °F 67 °F 60 °F (2000)
Cooling Degree Days 6    
Growing Degree Days 21 (Base 50)    
Moisture  
Dew Point 56 °F    
Average Humidity 61    
Maximum Humidity 86    
Minimum Humidity 38    
Precipitation  
Precipitation 0.00 in - - ()
Sea Level Pressure  
Sea Level Pressure 30.16 in    
Wind  
Wind Speed 7 mph (SE)    
Max Wind Speed 13 mph    
Max Gust Speed -    
Visibility 10 miles    
Events      
Averages and records for this station are not official NWS values.
T = Trace of Precipitation, MM = Missing Value Source: NWS Daily Summary

Daily Weather History Graph

Daily Weather History Graph

Search for Another Location

Airport or City:

Astronomy

Jul. 24, 2019 Rise Set
Actual Time 6:25 AM CDT 8:45 PM CDT
Civil Twilight 5:55 AM CDT 9:15 PM CDT
Nautical Twilight 5:18 AM CDT 9:52 PM CDT
Astronomical Twilight 4:37 AM CDT 10:32 PM CDT
Moon 12:40 AM CDT (7/24) 1:31 PM CDT (7/24)
Length of Visible Light 15h 20m
Length of Day
14h 20m
Waning Gibbous, 53% of the Moon is Illuminated
Jul 24
Waning Gibbous
Jul 24
Last Quarter
Jul 31
New
Aug 7
First Quarter
Aug 15
Full

Hourly Weather History & Observations

Time (CDT) Temp. Heat Index Dew Point Humidity Pressure Visibility Wind Dir Wind Speed Gust Speed Precip Events Conditions
12:56 AM 64.0 °F - 55.9 °F 75% 30.20 in 10.0 mi East 5.8 mph - N/A   Unknown
1:56 AM 62.1 °F - 55.0 °F 78% 30.19 in 10.0 mi East 5.8 mph - N/A   Unknown
2:56 AM 61.0 °F - 55.0 °F 81% 30.18 in 10.0 mi East 6.9 mph - N/A   Unknown
3:56 AM 60.1 °F - 55.0 °F 83% 30.19 in 10.0 mi ESE 6.9 mph - N/A   Unknown
4:56 AM 60.1 °F - 55.9 °F 86% 30.20 in 10.0 mi ESE 5.8 mph - N/A   Unknown
5:56 AM 60.1 °F - 55.9 °F 86% 30.20 in 10.0 mi ESE 6.9 mph - N/A   Unknown
6:56 AM 60.1 °F - 55.9 °F 86% 30.22 in 7.0 mi ESE 6.9 mph - N/A   Unknown
7:56 AM 64.9 °F - 57.0 °F 75% 30.22 in 10.0 mi SSE 8.1 mph - N/A   Unknown
8:56 AM 70.0 °F - 59.0 °F 68% 30.24 in 10.0 mi SSE 8.1 mph - N/A   Unknown
9:56 AM 73.9 °F - 57.9 °F 57% 30.23 in 10.0 mi SSE 8.1 mph - N/A   Unknown
10:56 AM 75.9 °F - 57.9 °F 54% 30.22 in 10.0 mi SW 6.9 mph - N/A   Clear
11:56 AM 77.0 °F - 57.0 °F 50% 30.19 in 10.0 mi SW 11.5 mph - N/A   Unknown
12:56 PM 80.1 °F 80.7 °F 59.0 °F 48% 30.18 in 10.0 mi South 8.1 mph - N/A   Partly Cloudy
1:56 PM 80.1 °F 80.6 °F 57.9 °F 47% 30.15 in 10.0 mi SW 8.1 mph - N/A   Mostly Cloudy
2:56 PM 81.0 °F 81.0 °F 57.0 °F 44% 30.13 in 10.0 mi SSW 8.1 mph - N/A   Scattered Clouds
3:56 PM 82.9 °F 82.4 °F 57.0 °F 41% 30.11 in 10.0 mi Variable 6.9 mph - N/A   Mostly Cloudy
4:56 PM 82.9 °F 82.0 °F 55.0 °F 38% 30.10 in 10.0 mi Variable 4.6 mph - N/A   Partly Cloudy
5:56 PM 82.9 °F 82.0 °F 55.0 °F 38% 30.09 in 10.0 mi ESE 6.9 mph - N/A   Clear
6:56 PM 81.0 °F 81.0 °F 57.0 °F 44% 30.09 in 10.0 mi East 6.9 mph - N/A   Clear
7:56 PM 79.0 °F - 57.0 °F 47% 30.08 in 10.0 mi ESE 8.1 mph - N/A   Clear
8:56 PM 75.0 °F - 55.9 °F 51% 30.08 in 10.0 mi ESE 9.2 mph - N/A   Unknown
9:56 PM 73.0 °F - 55.9 °F 55% 30.08 in 8.0 mi SE 12.7 mph - N/A   Unknown
10:56 PM 70.0 °F - 55.9 °F 61% 30.10 in 10.0 mi SE 10.4 mph - N/A   Unknown
11:56 PM 66.9 °F - 55.9 °F 68% 30.10 in 10.0 mi SE 9.2 mph - N/A   Unknown